Wind_Speed
26 26 27 26 26 27 26 25 23 21 20 19 17 16 15 14 13 11 10 9 8 7 6 5 4 3 3 2 2 2 2 2 2 3 2 1 0 1 1 2 3 5 6
29 28 27 26 27 28 29 28 26 25 24 22 21 20 19 18 17 16 14 13 12 10 9 8 7 6 4 3 2 1 1 1 1 1 1 1 1 2 3 4 4 5 6
33 32 30 29 29 29 30 30 30 29 27 26 24 23 22 21 21 20 19 17 15 14 13 12 11 9 8 6 5 4 3 3 3 3 3 3 3 4 4 5 6 6 7
37 35 33 32 31 30 30 31 32 32 30 28 27 26 25 24 24 24 23 21 20 18 16 15 14 13 11 10 8 7 6 6 6 6 6 6 6 6 6 6 7 8 8
40 39 37 35 33 32 32 32 32 32 31 31 30 29 28 28 28 27 26 25 23 22 20 19 17 16 15 14 12 11 10 9 8 8 8 8 8 8 8 8 9 9 9
40 40 40 39 37 35 34 34 33 33 33 32 32 32 31 30 30 29 29 28 26 25 23 22 21 19 18 17 16 14 13 12 11 11 11 11 11 11 11 11 10 10 11
39 40 40 40 40 39 37 35 34 34 33 33 33 33 32 32 32 31 30 29 28 27 26 24 23 22 21 20 19 18 16 15 14 13 13 13 13 13 13 13 12 12 12
38 39 40 40 41 40 39 38 37 36 33 32 32 32 33 32 33 33 31 30 29 29 28 26 25 24 23 22 21 20 19 18 18 17 16 16 16 15 15 15 14 14 14
37 38 39 40 41 41 41 41 39 39 36 34 33 33 33 33 32 33 32 31 30 29 29 28 26 25 24 23 23 22 21 20 19 19 19 19 18 18 17 17 17 16 16
35 37 38 40 41 42 42 42 43 41 39 37 35 34 34 34 34 34 34 33 31 30 29 29 28 27 26 25 24 23 23 22 21 20 20 20 20 20 19 19 19 19 18
34 36 37 39 41 41 42 42 43 43 42 40 38 36 36 35 35 35 35 35 34 32 30 30 29 28 27 26 25 24 24 23 22 22 21 21 21 21 21 20 20 20 20
30 33 35 36 39 40 41 42 43 43 42 42 40 39 37 35 36 37 38 38 36 35 33 32 31 30 28 27 26 25 24 24 23 23 23 22 22 22 21 21 21 22 22
23 26 29 32 35 38 40 41 42 43 42 42 42 41 39 37 36 37 37 39 39 38 36 34 32 31 29 28 27 26 25 25 24 23 23 23 23 22 22 22 23 23 24
17 20 24 26 29 33 36 38 41 41 41 40 41 42 40 38 36 37 38 38 38 38 36 35 33 31 30 28 28 28 27 26 26 25 25 25 25 24 24 24 24 24 25
11 15 17 21 23 26 30 34 38 40 41 41 40 40 39 38 38 38 38 39 39 38 37 37 35 32 30 28 28 29 29 29 29 28 27 27 28 27 27 26 27 27 27
7 8 11 14 18 22 25 29 34 37 39 41 41 40 40 39 38 39 39 40 40 40 39 37 36 34 32 30 30 29 29 29 29 29 29 29 29 29 29 29 30 29 29
9 7 7 9 12 16 19 23 29 34 36 38 40 40 39 41 40 40 41 40 40 40 39 39 38 36 34 32 31 30 30 29 29 29 30 30 30 31 31 31 31 30 29
10 9 7 7 7 11 15 19 22 27 31 34 37 38 38 38 39 39 40 41 41 41 40 39 39 36 34 32 31 31 30 30 29 28 29 30 30 31 31 30 30 30 30
11 10 9 8 7 8 10 13 17 21 25 29 32 34 35 36 37 36 35 36 38 39 39 39 37 36 34 33 32 31 29 28 28 28 28 29 30 30 30 30 29 30 29
13 11 10 9 8 9 10 11 14 17 20 24 26 29 31 33 33 33 33 33 33 34 35 35 35 34 34 33 32 31 30 29 28 28 27 28 28 29 29 28 28 28 27
15 14 12 11 10 10 10 12 13 16 18 20 23 25 28 30 31 31 32 33 33 34 34 34 35 35 35 34 33 32 31 30 29 28 27 27 27 28 28 27 27 26 25
17 16 15 14 13 12 12 13 14 16 17 20 21 22 25 26 27 29 31 32 33 33 34 34 35 35 35 35 34 34 32 31 30 29 28 28 27 27 27 26 25 24 21
19 18 17 15 15 14 14 14 14 16 17 19 20 21 22 24 26 27 28 29 29 31 32 33 32 33 34 35 35 34 33 32 30 29 28 27 26 26 25 25 23 20 18
21 20 19 18 17 16 15 15 15 16 17 18 20 21 21 22 23 24 26 26 26 27 28 29 30 31 33 33 32 32 31 30 29 27 26 25 24 23 22 21 19 17 16
23 23 22 21 19 18 16 15 15 15 16 17 18 20 20 20 21 21 22 24 25 25 27 28 28 29 29 29 29 28 28 27 26 26 25 24 23 22 20 19 17 16 15
25 25 25 24 22 20 17 15 13 12 13 15 16 17 18 19 20 20 20 21 21 22 23 24 25 25 26 26 26 25 25 25 24 24 23 23 21 20 18 17 16 15 14
Wind_Direction
252 256 257 254 251 247 243 240 239 237 235 232 230 229 229 232 236 234 230 229 228 225 224 220 212 200 186 167 142 115 98 90 85 78 73 70 53 266 261 260 260 259 260
256 255 256 255 255 250 243 239 239 239 238 236 233 232 232 233 238 240 238 236 236 236 237 238 237 236 235 232 231 238 265 317 340 2 360 350 324 302 289 284 281 279 279
260 259 257 255 256 254 247 243 239 238 238 237 236 234 234 236 240 242 242 241 240 240 241 243 245 246 247 249 253 259 269 282 292 297 303 307 308 304 299 295 291 288 286
256 257 259 256 255 252 251 248 245 241 238 238 237 236 235 236 239 242 243 243 243 242 243 245 247 249 251 254 257 262 269 276 283 287 289 294 299 300 300 302 301 298 295
254 254 256 256 256 253 252 251 249 244 241 240 239 236 234 234 236 239 243 244 244 244 245 246 248 249 251 254 257 261 266 272 277 282 284 285 289 292 293 296 300 301 301
253 252 253 253 253 254 253 249 249 247 244 242 240 237 234 232 234 236 239 242 244 245 245 246 247 249 251 253 256 259 263 268 272 276 279 281 283 286 288 289 293 297 299
253 251 251 251 251 251 251 248 247 248 248 246 242 239 235 234 233 235 236 239 243 245 245 246 246 248 250 251 253 256 260 264 268 271 274 276 278 281 283 285 287 291 294
253 251 249 249 248 248 247 246 245 246 248 248 244 239 236 235 234 234 235 236 239 242 244 245 246 247 248 249 251 253 257 260 263 268 271 273 274 276 278 280 283 285 289
253 251 249 248 247 246 245 244 243 244 246 247 244 241 236 235 234 234 234 235 236 239 242 243 244 246 247 248 249 251 254 257 260 264 268 270 271 272 274 277 279 281 285
255 252 250 248 247 246 245 245 244 244 243 243 242 239 236 233 234 233 234 235 235 236 239 241 243 245 246 247 247 249 251 254 257 261 266 268 269 269 271 273 275 278 282
256 253 250 248 245 244 243 243 243 243 241 240 240 237 236 235 235 233 233 235 234 234 235 237 239 241 244 245 246 248 250 253 256 260 265 267 268 269 270 271 273 275 279
257 253 250 247 244 243 241 240 240 239 240 239 238 237 236 237 236 235 235 234 233 232 233 233 236 239 241 243 244 247 250 253 256 260 263 265 266 268 270 271 273 275 277
260 253 249 246 243 241 239 239 238 236 236 237 237 237 236 237 237 235 233 232 231 231 231 231 233 235 237 239 242 245 250 253 257 260 262 263 265 267 270 272 273 274 276
265 256 250 245 242 240 238 238 236 233 232 234 234 235 235 235 233 232 232 230 229 230 230 230 230 233 234 236 239 243 249 253 256 259 262 264 265 266 270 273 274 275 275
275 260 251 244 242 241 238 236 234 232 231 231 232 232 233 233 233 232 231 228 228 227 228 228 230 232 233 234 237 241 246 252 254 257 259 262 265 267 269 272 275 275 275
315 285 263 252 245 243 241 237 234 232 231 231 231 232 231 231 233 232 231 228 227 228 228 228 228 230 231 233 235 240 245 248 252 255 257 261 264 266 268 272 275 275 274
353 334 298 270 254 246 243 240 237 235 233 232 232 233 231 230 230 231 229 229 228 227 227 228 228 228 230 232 234 238 243 247 251 254 257 260 262 265 267 269 274 274 273
356 350 334 308 281 259 250 245 241 238 238 237 237 237 235 233 230 228 228 227 226 227 226 227 227 227 228 231 235 238 243 248 251 254 257 260 263 265 267 269 271 271 272
357 350 339 323 299 277 262 250 244 240 239 239 241 240 239 236 233 230 229 227 225 226 226 226 227 227 229 232 235 238 243 247 251 253 256 259 262 264 267 268 269 269 270
356 351 343 329 311 292 275 260 250 244 240 239 239 238 239 238 236 235 233 231 229 228 227 226 227 229 232 234 237 240 244 248 251 254 256 258 260 262 265 265 267 267 268
352 347 339 330 318 304 287 271 260 253 246 241 238 236 236 237 236 235 233 231 232 232 232 230 230 232 235 237 239 242 245 248 251 254 257 258 259 261 262 262 262 264 265
353 347 340 331 320 308 295 281 268 258 251 245 242 238 235 234 234 235 234 233 233 233 233 233 233 234 236 238 241 243 246 248 250 252 255 257 256 258 259 258 259 260 260
356 351 344 335 325 313 301 289 277 265 254 247 243 240 236 233 231 231 231 231 231 232 233 233 233 235 236 238 240 242 244 246 247 250 251 253 253 254 254 256 255 254 252
360 356 350 341 332 321 309 295 283 271 258 248 241 237 235 231 228 227 227 227 227 228 230 230 230 231 232 234 237 239 240 241 242 245 246 249 251 250 252 249 246 246 246
4 360 355 349 343 334 322 306 288 272 259 246 237 232 229 226 222 220 220 220 221 223 224 225 227 228 229 229 230 233 235 236 238 240 241 243 245 244 243 240 238 237 236
7 4 1 357 352 345 336 323 303 279 259 243 231 222 219 217 215 214 213 213 213 215 216 217 219 219 219 219 221 223 227 230 232 233 234 236 238 236 235 232 230 230 231
Height
5885 5886 5886 5887 5888 5889 5891 5893 5895 5897 5898 5899 5900 5902 5903 5903 5904 5905 5906 5907 5907 5907 5908 5908 5909 5909 5909 5909 5909 5909 5909 5909 5909 5909 5909 5909 5909 5910 5910 5910 5910 5911 5911
5878 5879 5880 5881 5882 5883 5885 5887 5889 5891 5893 5894 5896 5898 5899 5900 5901 5902 5903 5904 5905 5906 5907 5907 5908 5908 5908 5908 5909 5909 5909 5909 5909 5909 5909 5909 5909 5909 5909 5909 5909 5909 5909
5871 5872 5873 5874 5876 5877 5878 5880 5882 5885 5887 5889 5890 5892 5894 5896 5897 5898 5900 5901 5902 5903 5904 5905 5906 5906 5907 5907 5907 5907 5908 5908 5908 5908 5908 5908 5908 5908 5908 5908 5908 5907 5907
5862 5864 5866 5867 5869 5870 5872 5873 5875 5877 5880 5882 5884 5887 5889 5891 5893 5894 5895 5897 5898 5900 5901 5902 5903 5904 5904 5905 5905 5906 5906 5906 5906 5906 5906 5906 5906 5906 5906 5906 5906 5906 5905
5853 5855 5857 5859 5861 5863 5865 5866 5868 5870 5872 5875 5878 5880 5883 5885 5887 5889 5890 5892 5894 5895 5896 5898 5899 5900 5901 5902 5903 5903 5904 5904 5904 5904 5904 5904 5904 5904 5904 5904 5904 5903 5903
5842 5844 5847 5849 5852 5854 5856 5858 5860 5862 5864 5867 5870 5873 5876 5879 5881 5883 5885 5886 5888 5890 5892 5893 5895 5896 5897 5898 5899 5900 5901 5901 5901 5902 5902 5902 5902 5902 5902 5901 5901 5901 5900
5830 5833 5836 5839 5842 5845 5847 5849 5851 5854 5856 5859 5862 5865 5869 5872 5875 5877 5879 5881 5882 5884 5886 5888 5889 5891 5892 5894 5895 5896 5897 5898 5898 5898 5899 5899 5899 5899 5899 5899 5898 5898 5898
5819 5822 5825 5828 5831 5834 5837 5840 5843 5846 5848 5851 5853 5856 5860 5864 5867 5870 5873 5875 5877 5878 5880 5882 5884 5886 5887 5888 5890 5891 5892 5893 5894 5895 5895 5895 5895 5895 5896 5896 5895 5895 5895
5807 5810 5813 5816 5820 5823 5827 5830 5833 5837 5839 5842 5845 5848 5852 5856 5858 5862 5865 5868 5871 5873 5874 5876 5878 5880 5881 5883 5885 5886 5888 5889 5889 5890 5891 5891 5891 5892 5892 5892 5892 5891 5891
5796 5798 5802 5805 5808 5812 5816 5819 5823 5826 5830 5833 5836 5840 5843 5847 5850 5854 5857 5861 5864 5866 5868 5870 5872 5874 5875 5877 5879 5881 5882 5883 5884 5885 5886 5886 5887 5887 5887 5887 5887 5887 5887
5785 5787 5790 5793 5796 5800 5804 5808 5812 5816 5820 5824 5828 5831 5834 5838 5842 5846 5849 5853 5856 5859 5861 5864 5866 5868 5869 5871 5873 5875 5876 5878 5879 5880 5881 5882 5882 5882 5882 5882 5883 5883 5882
5774 5776 5779 5781 5785 5788 5792 5796 5800 5805 5809 5814 5818 5822 5825 5829 5833 5837 5840 5844 5847 5851 5854 5857 5859 5861 5863 5865 5867 5869 5871 5872 5873 5875 5876 5876 5877 5877 5878 5878 5878 5878 5877
5766 5767 5769 5771 5774 5777 5781 5785 5789 5794 5798 5803 5808 5812 5816 5821 5823 5827 5831 5834 5839 5842 5845 5849 5852 5855 5856 5858 5861 5863 5864 5866 5868 5869 5870 5871 5871 5872 5872 5872 5873 5873 5872
5760 5760 5761 5762 5764 5767 5770 5774 5778 5783 5788 5793 5797 5801 5806 5810 5814 5817 5822 5825 5829 5834 5837 5841 5844 5848 5850 5852 5854 5857 5858 5860 5862 5863 5864 5865 5866 5866 5867 5867 5867 5867 5867
5755 5755 5755 5755 5757 5759 5761 5764 5768 5773 5778 5782 5786 5791 5795 5800 5804 5808 5812 5817 5821 5825 5829 5833 5837 5840 5843 5846 5848 5851 5852 5854 5855 5857 5858 5859 5859 5860 5860 5861 5861 5861 5860
5753 5751 5751 5751 5751 5753 5754 5757 5760 5763 5768 5772 5776 5780 5785 5790 5794 5798 5803 5807 5811 5816 5819 5824 5829 5833 5836 5839 5842 5844 5846 5847 5849 5850 5851 5852 5853 5853 5854 5854 5854 5854 5854
5752 5750 5749 5748 5748 5748 5749 5751 5753 5756 5759 5763 5767 5770 5774 5779 5784 5788 5793 5797 5801 5806 5811 5815 5820 5824 5828 5832 5835 5837 5839 5841 5842 5843 5844 5845 5846 5846 5847 5847 5847 5847 5847
5752 5750 5748 5746 5745 5745 5745 5746 5747 5749 5752 5755 5758 5762 5765 5770 5774 5779 5783 5787 5792 5797 5801 5806 5811 5815 5820 5823 5827 5830 5832 5834 5835 5837 5838 5838 5839 5839 5839 5840 5840 5840 5840
5752 5749 5747 5745 5743 5743 5742 5742 5742 5744 5746 5748 5751 5754 5757 5761 5765 5769 5773 5777 5782 5787 5792 5797 5802 5807 5811 5815 5819 5822 5825 5827 5829 5830 5830 5831 5831 5832 5832 5833 5833 5833 5833
5751 5749 5746 5744 5742 5740 5739 5738 5738 5739 5740 5742 5744 5746 5750 5753 5756 5760 5764 5769 5774 5779 5784 5789 5794 5798 5803 5807 5811 5814 5817 5820 5821 5822 5823 5824 5825 5825 5825 5826 5826 5826 5826
5751 5747 5744 5742 5739 5737 5736 5735 5734 5734 5734 5736 5737 5739 5742 5745 5749 5753 5757 5762 5767 5771 5776 5780 5786 5791 5795 5800 5804 5807 5810 5812 5814 5815 5816 5818 5818 5819 5819 5820 5820 5820 5820
5750 5746 5742 5739 5736 5734 5732 5730 5729 5729 5729 5730 5731 5733 5735 5738 5742 5746 5750 5754 5759 5764 5768 5773 5778 5783 5787 5792 5795 5798 5802 5804 5807 5809 5810 5811 5812 5813 5813 5814 5814 5814 5814
5748 5744 5740 5736 5733 5729 5727 5725 5723 5723 5723 5723 5725 5726 5729 5732 5735 5739 5743 5747 5751 5756 5761 5766 5770 5775 5779 5784 5787 5790 5793 5796 5799 5800 5802 5804 5805 5806 5807 5808 5808 5809 5809
5747 5742 5738 5733 5729 5725 5721 5719 5717 5716 5716 5717 5718 5720 5723 5726 5729 5733 5737 5741 5745 5749 5754 5758 5763 5767 5771 5776 5779 5783 5785 5788 5791 5794 5796 5798 5799 5800 5802 5802 5803 5804 5805
5747 5741 5736 5730 5725 5720 5716 5713 5710 5709 5709 5710 5712 5714 5717 5720 5723 5727 5731 5735 5739 5743 5747 5751 5756 5760 5764 5769 5772 5776 5779 5782 5785 5788 5790 5792 5794 5795 5796 5797 5799 5800 5802
5747 5741 5734 5728 5722 5716 5711 5707 5704 5702 5702 5703 5705 5708 5712 5715 5719 5722 5727 5731 5734 5738 5742 5746 5750 5754 5758 5762 5766 5770 5773 5777 5779 5782 5785 5787 5789 5790 5792 5793 5795 5797 5799